www.pogodaiklimat.ru
ПОГОДА в Лахор аэропорту
Время
(UTC), дата
21 5.11
00 6.11
03 6.11
06 6.11
09 6.11
12 6.11
15 6.11
18 6.11
21 6.11
00 7.11
03 7.11
06 7.11
09 7.11
12 7.11
15 7.11
18 7.11
21 7.11
00 8.11
03 8.11
06 8.11
09 8.11
12 8.11
15 8.11
18 8.11
21 8.11
00 9.11
03 9.11
06 9.11
09 9.11
12 9.11
15 9.11
18 9.11
21 9.11
00 10.11
03 10.11
06 10.11
09 10.11
12 10.11
15 10.11
18 10.11
21 10.11
00 11.11
03 11.11
06 11.11
09 11.11
12 11.11
15 11.11
18 11.11
21 11.11
00 12.11
03 12.11
06 12.11
09 12.11
12 12.11
15 12.11
Ветер
(напр.,м/с)
Видим. Явления Облачность Т
(С)
Тd
(С)
f
(%)
Тe
(С)
Тes
(С)
Комфортность P
(гПа)
Po
(гПа)
Тmin
(С)
Tmax
(С)
R
(мм)
R24
(мм)
S
(см)
ЮВ 2 4000 м дым 3/0
[Ac trans]
+19.0 +12.8 67 +21 +21 комфорт 1009.7 984.5
ЮВ 2 2000 м дым ясно +18.0 +13.6 75 +19 +19 тепло 1007.3 982.1
ЮВ 2 2000 м дымка 3/0
[Ac trans]
+18.0 +14.6 81 +19 +20 тепло 1008.9 983.6 +16.2
Ю 6 2000 м мгла 4/0 1200 м
[Ac trans]
+24.5 +12.4 47 +26 +29 жарко 1009.4 984.7
Ю 7 4000 м мгла 8/4 1200 м
[Sc Ac As]
+28.0 +9.2 31 +28 +29 жарко 1006.8 982.4
ЮВ 3 2000 м мгла 8/4 1200 м
[Sc diur, vesp Ac As]
+27.0 +11.4 38 +28 +28 жарко 1005.7 981.3 +29.2
ЮВ 4 1000 м дым 6/3 1200 м
[Sc Ac As]
+23.5 +13.2 52 +26 +26 жарко 1006.7 982.0
Ю 7 4000 м дым 4/0
[Ac trans]
+21.0 +14.2 65 +24 +24 комфорт 1007.9 982.9
ЮВ 3 4000 м дым ясно +18.0 +11.7 67 +18 +18 тепло 1008.2 983.0
В 4 4000 м гроза, ливневой дождь 9/5 900 м
[Cb cap As op]
+17.0 +11.5 70 +17 +17 тепло 1008.9 983.6 0.0
ЮВ 3 4000 м дым {гроза, дождь} 8/5 1200 м
[Sc diur, vesp Ac As]
+18.0 +13.6 75 +18 +19 тепло 1011.3 986.0 +16.5 1
ЮВ 4 4000 м дым {гроза, дождь} 9/5 1000 м
[Sc diur, vesp Ac As]
+20.5 +15.5 73 +23 +25 комфорт 1012.3 987.2
ЮЗ 5 4000 м дым {дождь} 9/5 1200 м
[Sc diur, vesp Ac As]
+23.5 +16.2 64 +27 +28 душно 1009.5 984.7 0.5
СВ 8 4000 м дым {дождь} 8/4 1200 м
[Sc diur, vesp Ac As]
+20.0 +14.9 72 +22 +22 комфорт 1010.8 985.7 +24.0
СВ 9 4000 м слаб. морось 8/4 1200 м
[Sc diur, vesp Ac As]
+16.0 +13.3 84 +14 +14 тепло 1011.9 986.4 0.0
В 5 2000 м зарница {гроза, дождь} 6/5 900 м
[Cb cap Ac As]
+15.0 +13.2 89 +14 +14 тепло 1013.8 988.2 1
ЮВ 3 4000 м дым 6/3 1200 м
[Sc Ac trans]
+14.0 +12.2 89 +13 +13 тепло 1014.1 988.4
СЗ 3 4000 м дым 6/3 1200 м
[Sc Ac trans]
+13.0 +11.1 88 +12 +12 тепло 1014.5 988.7
С 3 2000 м дымка ясно +13.5 +11.6 88 +12 +14 тепло 1016.8 990.9 +12.2
СЗ 2 4000 м дым ясно +19.0 +12.8 67 +21 +29 комфорт 1017.7 992.3
СЗ 3 4000 м дым ясно +22.0 +13.4 58 +25 +30 комфорт 1015.4 990.3
СЗ 3 4000 м дым ясно +22.0 +12.4 54 +24 +25 комфорт 1015.1 990.0 +24.0
штиль 0 2000 м дым ясно +20.0 +14.0 68 +22 +22 комфорт 1016.3 991.0
штиль 0 4000 м дым ясно +17.0 +13.5 80 +17 +17 тепло 1017.0 991.5
штиль 0 4000 м дым ясно +15.0 +12.3 84 +15 +15 тепло 1015.6 989.9
СЗ 2 4000 м дым ясно +14.5 +11.7 83 +14 +14 тепло 1015.6 989.9
штиль 0 2000 м дымка ясно +15.0 +12.3 84 +15 +16 тепло 1016.7 991.0 +12.7
З 2 4000 м мгла ясно +22.0 +10.2 47 +24 +33 комфорт 1016.3 991.2
Ю 2 4000 м мгла ясно +27.0 +7.5 29 +27 +34 жарко 1013.9 989.3
С 2 4000 м мгла ясно +26.0 +8.6 33 +26 +26 жарко 1013.5 988.8 +27.3
З 2 4000 м дым ясно +19.5 +9.1 51 +21 +21 комфорт 1015.0 989.7
штиль 0 4000 м дым ясно +16.5 +9.9 65 +16 +16 тепло 1014.8 989.3
штиль 0 4000 м дым ясно +15.0 +11.3 79 +15 +15 тепло 1014.3 988.6
штиль 0 4000 м дым ясно +12.5 +9.6 82 +12 +12 тепло 1013.6 987.7
СЗ 2 2000 м дым ясно +14.5 +10.7 78 +14 +16 тепло 1015.0 989.3 +11.5
З 4 4000 м мгла ясно +22.5 +7.1 37 +23 +29 комфорт 1015.9 990.8
штиль 0 4000 м мгла ясно +26.0 +4.2 25 +25 +34 комфорт 1014.0 989.3
В 2 4000 м мгла ясно +24.5 +7.6 34 +25 +25 комфорт 1013.1 988.3 +26.2
штиль 0 4000 м дым ясно +19.0 +9.6 54 +20 +20 тепло 1014.4 989.1
штиль 0 4000 м дым ясно +18.0 +11.7 67 +18 +18 тепло 1014.3 988.9
штиль 0 4000 м дым 3/0
[Ac trans]
+16.0 +11.8 76 +16 +16 тепло 1013.4 987.9
штиль 0 4000 м дым ясно +14.0 +11.2 83 +14 +14 тепло 1012.6 986.9
штиль 0 2000 м дымка 3/0
[Ac trans]
+14.0 +11.2 83 +14 +15 тепло 1013.6 987.9 +12.7
З 2 4000 м мгла 3/0
[Ac trans]
+23.0 +7.9 38 +24 +31 комфорт 1014.9 989.9
штиль 0 4000 м мгла 5/0
[Ac As]
+26.0 +7.3 30 +26 +31 жарко 1013.6 988.9
З 2 4000 м мгла 8/4 1200 м
[Sc Ac As]
+23.5 +9.9 42 +25 +25 комфорт 1012.4 987.5 +26.2
штиль 0 4000 м дым 8/4 1200 м
[Sc Ac As]
+20.0 +10.9 56 +21 +21 комфорт 1013.5 988.3
штиль 0 4000 м дым 4/0
[Ac As]
+17.0 +11.5 70 +17 +17 тепло 1014.1 988.6
штиль 0 4000 м дым 4/0
[Ac trans]
+15.0 +10.3 73 +15 +15 тепло 1013.7 988.1
штиль 0 4000 м дым 4/0
[Ac As]
+12.5 +8.5 77 +12 +12 тепло 1013.7 987.8
штиль 0 1000 м дым 5/0
[Ac trans]
+14.5 +10.7 78 +14 +15 тепло 1015.1 989.4 +11.4
штиль 0 2000 м дым 5/0
[Ac trans]
+22.0 +11.3 51 +24 +32 комфорт 1015.8 990.7
З 2 4000 м мгла 6/3 1200 м
[Sc Ac As]
+24.0 +9.4 40 +25 +28 комфорт 1014.1 989.2
ЮЗ 2 2000 м дым 4/0
[Ac trans]
+23.0 +11.1 47 +25 +25 комфорт 1013.1 988.2 +25.0
штиль 0 2000 м дым 4/0
[Ac trans]
+19.5 +11.4 59 +21 +21 комфорт 1014.6 989.3
Местоположение метеостанции Лахор аэропорт (Пакистан): широта 31.52 долгота 74.40 высота над уровнем моря 216 м.
В архиве по умолчанию представлена погода в Лахор аэропорту за последнюю неделю. Архивные данные за месяц целиком и за предыдущие месяцы, начиная с января 2011 года, Вы можете получить, выбрав интересующий диапазон дат из раскрывающегося списка и нажав кнопку "Найти!".
*Определитесь, кто Вы:
Внимание! Время в таблицах - всемирное. Для получения местного времени необходимо прибавить поправку, которая равна 5 ч.
Смотрите также архив погоды в соседних городах и на ближайших метеорологических станциях:
Партнеры нашего сайта:      
Пояснения к столбцам:
  • Ветер - указаны скорость ветра в м/с - средняя за 10 мин, порывы в срок и между сроками (в фигурных скобках) и направление, откуда дует ветер: С - северный,
  • СВ - северо-восточный, В - восточный, ЮВ - юго-восточный, Ю - южный, ЮЗ - юго-западный, З - западный, СЗ - северо-западный.
  • Видимость - горизонтальная дальность видимости в метрах или километрах. При видимости от 1 до 10 км при отсутствии осадков обычно наблюдается дымка, при ухудшении видимости до 1 км и менее - туман. В сухую погоду видимость может ухудшаться дымом, пылью или мглою.
  • Явления - указаны атмосферные явления, наблюдавшиеся в срок или в последний час перед сроком; фигурными скобками обозначены явления, наблюдавшиеся между сроками (за 1-3 часа до срока); квадратными скобками обозначены град или гололедные отложения с указанием их диаметра в мм.
  • Облачность - указаны через наклонную черту общая и нижняя облачность в баллах и высота нижней границы облаков в метрах; квадратными скобками обозначены формы облаков: Ci - перистые, Cs - перисто-слоистые, Cc - перисто-кучевые, Ac - высококучевые, As - высокослоистые, Sc - слоисто-кучевые, Ns - слоисто-дождевые, Cu - кучевые, Cb - кучево-дождевые. Подробнее классификацию облаков см. в Атласе облаков (PDF).
  • T - Температура воздуха - температура, измеренная на высоте 2 м над землей.
  • Td - Температура точки росы - температура, при понижении до которой содержащийся в воздухе водяной пар достигнет насыщения.
  • f - Относительная влажность воздуха - влажноcть воздуха, измеренная на высоте 2 м над землей.
  • Te - Эффективная температура - температура, которую ощущает одетый по сезону человек в тени. Характеристика душности погоды. При расчете учитывается влияние влажности воздуха и скорости ветра на теплоощущения человека.
  • Tes - Эффективная температура на солнце - температура, которую ощущает человек, с поправкой на солнечный нагрев. Характеристика знойности погоды. Зависит от высоты солнца над горизонтом, облачности и скорости ветра. Ночью, в пасмурную погоду, а также при ветре 12 м/с и более поправка равна нулю.
  • P - Атмосферное давление - приведенное к уровню моря атмосферное давление.
  • Po - Атмосферное давление - измеренное на уровне метеостанции атмосферное давление.
  • Tmin - Минимальная температура - минимум температуры воздуха на высоте 2 м над землей.
  • Tmax - Максимальная температура - максимум температуры воздуха на высоте 2 м над землей.
  • R - Количество осадков - Количество выпавших осадков за период времени, мм. При наведении курсора мыши на число - период времени, за который выпало указанное количество осадков.
  • R24 - Количество осадков - Количество выпавших осадков за 24 часа, мм.
  • S - Снежный покров - Высота снежного покрова, см. При наведении курсора мыши на число - состояние снежного покрова и степень покрытия местности в баллах.